TimeCST,TemperatureF,Dew PointF,Humidity,Sea Level PressureIn,VisibilityMPH,Wind Direction,Wind SpeedMPH,Gust SpeedMPH,PrecipitationIn,Events,Conditions,WindDirDegrees,DateUTC
12:15 AM,26.6,21.2,80,30.35,10.0,North,9.2,-,N/A,,Mostly Cloudy,350,2013-01-14 06:15:00
12:35 AM,26.6,21.2,80,30.34,10.0,North,9.2,-,N/A,,Mostly Cloudy,360,2013-01-14 06:35:00
12:55 AM,26.6,21.2,80,30.35,10.0,North,10.4,-,N/A,,Scattered Clouds,350,2013-01-14 06:55:00
1:35 AM,26.6,19.4,74,30.37,10.0,North,5.8,-,N/A,,Clear,360,2013-01-14 07:35:00
1:55 AM,26.6,19.4,74,30.37,10.0,North,10.4,-,N/A,,Clear,350,2013-01-14 07:55:00
2:35 AM,24.8,19.4,80,30.38,10.0,North,9.2,-,N/A,,Clear,360,2013-01-14 08:35:00
2:55 AM,24.8,19.4,80,30.39,10.0,North,8.1,-,N/A,,Clear,360,2013-01-14 08:55:00
3:15 AM,24.8,19.4,80,30.39,10.0,North,8.1,-,N/A,,Clear,360,2013-01-14 09:15:00
3:35 AM,24.8,17.6,74,30.39,10.0,North,8.1,-,N/A,,Clear,350,2013-01-14 09:35:00
3:55 AM,24.8,17.6,74,30.38,10.0,North,8.1,-,N/A,,Clear,360,2013-01-14 09:55:00
4:15 AM,24.8,17.6,74,30.39,10.0,North,6.9,-,N/A,,Clear,350,2013-01-14 10:15:00
4:35 AM,24.8,17.6,74,30.39,10.0,North,10.4,-,N/A,,Clear,350,2013-01-14 10:35:00
4:55 AM,24.8,17.6,74,30.38,10.0,North,8.1,-,N/A,,Clear,360,2013-01-14 10:55:00
5:15 AM,24.8,17.6,74,30.39,10.0,North,5.8,-,N/A,,Clear,10,2013-01-14 11:15:00
5:35 AM,24.8,17.6,74,30.39,10.0,North,8.1,-,N/A,,Clear,10,2013-01-14 11:35:00
5:55 AM,24.8,17.6,74,30.40,10.0,North,10.4,-,N/A,,Clear,10,2013-01-14 11:55:00
6:15 AM,24.8,17.6,74,30.40,10.0,NNE,8.1,-,N/A,,Clear,20,2013-01-14 12:15:00
6:35 AM,23.0,17.6,80,30.40,10.0,NNE,8.1,-,N/A,,Clear,20,2013-01-14 12:35:00
6:55 AM,23.0,17.6,80,30.39,10.0,NNE,8.1,-,N/A,,Clear,20,2013-01-14 12:55:00
7:15 AM,23.0,17.6,80,30.39,10.0,NNE,8.1,-,N/A,,Clear,20,2013-01-14 13:15:00
7:35 AM,23.0,17.6,80,30.38,10.0,NNE,10.4,-,N/A,,Clear,20,2013-01-14 13:35:00
7:55 AM,24.8,17.6,74,30.39,10.0,NNE,11.5,17.3,N/A,,Clear,30,2013-01-14 13:55:00
8:15 AM,24.8,17.6,74,30.40,10.0,NNE,10.4,-,N/A,,Clear,20,2013-01-14 14:15:00
8:35 AM,24.8,19.4,80,30.41,10.0,NNE,15.0,19.6,N/A,,Clear,20,2013-01-14 14:35:00
8:55 AM,26.6,17.6,69,30.40,10.0,NNE,16.1,20.7,N/A,,Clear,30,2013-01-14 14:55:00
9:15 AM,26.6,17.6,69,30.43,10.0,NNE,11.5,-,N/A,,Clear,20,2013-01-14 15:15:00
9:35 AM,26.6,17.6,69,30.44,10.0,North,10.4,-,N/A,,Clear,10,2013-01-14 15:35:00
9:55 AM,28.4,19.4,69,30.43,10.0,North,11.5,-,N/A,,Clear,10,2013-01-14 15:55:00
10:15 AM,28.4,19.4,69,30.43,10.0,NNE,11.5,-,N/A,,Clear,20,2013-01-14 16:15:00
10:35 AM,28.4,19.4,69,30.42,10.0,North,11.5,-,N/A,,Clear,360,2013-01-14 16:35:00
10:55 AM,28.4,19.4,69,30.43,10.0,North,9.2,-,N/A,,Clear,10,2013-01-14 16:55:00
11:15 AM,30.2,19.4,64,30.43,10.0,NNW,11.5,-,N/A,,Scattered Clouds,340,2013-01-14 17:15:00
11:35 AM,28.4,19.4,69,30.43,10.0,NNW,12.7,-,N/A,,Scattered Clouds,330,2013-01-14 17:35:00
11:55 AM,30.2,21.2,69,30.46,10.0,North,9.2,-,N/A,,Mostly Cloudy,350,2013-01-14 17:55:00
12:15 PM,28.4,19.4,69,30.46,10.0,North,10.4,-,N/A,,Overcast,350,2013-01-14 18:15:00
12:35 PM,30.2,21.2,69,30.46,10.0,NNW,12.7,-,N/A,,Overcast,340,2013-01-14 18:35:00
12:55 PM,28.4,19.4,69,30.42,10.0,North,9.2,-,N/A,,Overcast,360,2013-01-14 18:55:00
1:15 PM,30.2,21.2,69,30.39,10.0,NNE,11.5,-,N/A,,Overcast,20,2013-01-14 19:15:00
1:35 PM,30.2,21.2,69,30.41,10.0,North,9.2,-,N/A,,Mostly Cloudy,360,2013-01-14 19:35:00
1:55 PM,30.2,21.2,69,30.38,10.0,NNE,10.4,-,N/A,,Scattered Clouds,20,2013-01-14 19:55:00
2:15 PM,30.2,21.2,69,30.41,10.0,North,9.2,-,N/A,,Scattered Clouds,10,2013-01-14 20:15:00
2:35 PM,30.2,21.2,69,30.40,10.0,NE,11.5,-,N/A,,Overcast,40,2013-01-14 20:35:00
2:55 PM,30.2,21.2,69,30.39,10.0,NNE,11.5,-,N/A,,Overcast,20,2013-01-14 20:55:00
3:15 PM,30.2,21.2,69,30.39,10.0,NNE,12.7,-,N/A,,Overcast,20,2013-01-14 21:15:00
3:35 PM,32.0,21.2,64,30.38,10.0,North,12.7,18.4,N/A,,Scattered Clouds,10,2013-01-14 21:35:00
3:55 PM,32.0,21.2,64,30.39,10.0,North,13.8,-,N/A,,Clear,10,2013-01-14 21:55:00
4:15 PM,32.0,21.2,64,30.39,10.0,North,10.4,-,N/A,,Clear,10,2013-01-14 22:15:00
4:35 PM,30.2,19.4,64,30.39,10.0,NNE,12.7,18.4,N/A,,Clear,20,2013-01-14 22:35:00
4:55 PM,30.2,21.2,69,30.40,10.0,NNE,8.1,-,N/A,,Clear,20,2013-01-14 22:55:00
5:15 PM,30.2,21.2,69,30.39,10.0,NNE,9.2,-,N/A,,Clear,30,2013-01-14 23:15:00
5:35 PM,28.4,21.2,74,30.39,10.0,NNE,8.1,-,N/A,,Clear,30,2013-01-14 23:35:00
5:55 PM,28.4,21.2,74,30.38,10.0,NNE,8.1,-,N/A,,Clear,20,2013-01-14 23:55:00
6:15 PM,28.4,21.2,74,30.38,10.0,North,5.8,-,N/A,,Clear,360,2013-01-15 00:15:00
6:35 PM,28.4,21.2,74,30.38,10.0,North,5.8,-,N/A,,Clear,10,2013-01-15 00:35:00
6:55 PM,28.4,21.2,74,30.38,10.0,North,5.8,-,N/A,,Clear,360,2013-01-15 00:55:00
7:15 PM,28.4,21.2,74,30.38,10.0,North,8.1,-,N/A,,Clear,10,2013-01-15 01:15:00
7:35 PM,28.4,21.2,74,30.37,10.0,North,5.8,-,N/A,,Clear,10,2013-01-15 01:35:00
7:55 PM,28.4,21.2,74,30.37,10.0,North,6.9,-,N/A,,Clear,10,2013-01-15 01:55:00
8:15 PM,26.6,19.4,74,30.37,10.0,North,6.9,-,N/A,,Clear,10,2013-01-15 02:15:00
8:35 PM,26.6,21.2,80,30.37,10.0,North,8.1,-,N/A,,Clear,10,2013-01-15 02:35:00
8:55 PM,26.6,19.4,74,30.36,10.0,North,8.1,-,N/A,,Clear,10,2013-01-15 02:55:00
9:15 PM,26.6,19.4,74,30.36,10.0,North,8.1,-,N/A,,Clear,10,2013-01-15 03:15:00
9:35 PM,26.6,19.4,74,30.36,10.0,North,8.1,-,N/A,,Clear,10,2013-01-15 03:35:00
9:55 PM,26.6,19.4,74,30.36,10.0,North,9.2,-,N/A,,Clear,10,2013-01-15 03:55:00
10:15 PM,26.6,19.4,74,30.36,10.0,NNE,10.4,-,N/A,,Clear,20,2013-01-15 04:15:00
10:35 PM,26.6,19.4,74,30.36,10.0,North,10.4,-,N/A,,Clear,10,2013-01-15 04:35:00
10:55 PM,26.6,19.4,74,30.36,10.0,North,8.1,-,N/A,,Clear,10,2013-01-15 04:55:00
11:15 PM,26.6,19.4,74,30.36,10.0,North,8.1,-,N/A,,Clear,10,2013-01-15 05:15:00
11:35 PM,26.6,19.4,74,30.36,10.0,NNE,8.1,-,N/A,,Clear,20,2013-01-15 05:35:00
11:55 PM,26.6,19.4,74,30.35,10.0,NNE,9.2,-,N/A,,Clear,20,2013-01-15 05:55:00